Regional Weather Roundup
Issued by NWS Sioux Falls, SD

Home | Current Version | Previous Version | Graphics & Text | Print | Product List | Glossary On
Versions: 1 2 3 4 5 6 7 8 9 10 11 12 13 14 15 16 17 18 19 20 21 22 23 24 25 26 27 28 29 30 31 32 33 34 35 36 37 38 39 40 41 42 43 44 45 46 47 48 49 50
559
ASUS43 KFSD 310110
RWRFSD

WEATHER ROUNDUP FOR SE SOUTH DAKOTA/SW MINNESOTA/NW IOWA
NATIONAL WEATHER SERVICE SIOUX FALLS SD
800 PM CDT SAT JUL 30 2016

NOTE: "FAIR" INDICATES FEW OR NO CLOUDS BELOW 12,000 FEET WITH NO
SIGNIFICANT WEATHER AND OR OBSTRUCTIONS TO VISIBILITY.


SDZ038>040-050-052>070-310200-
SOUTHEAST SOUTH DAKOTA

CITY           SKY/WX    TMP DP  RH WIND       PRES   REMARKS
BROOKINGS      CLEAR     75  59  57 SE10      29.94F
CHAMBERLAIN    CLEAR     83  69  62 SE16      29.86R
HURON          CLEAR     80  61  52 S13G22    29.86F
MADISON        FAIR      73  59  60 SE7       29.94F
MITCHELL       CLEAR     80  63  55 SE10      29.89F
SIOUX FALLS    PTCLDY    77  58  51 SE10      29.94S
WINNER         FAIR      81  66  60 SE9       29.86R
YANKTON        CLEAR     79  61  53 SE13      29.90F
$$

MNZ071-072-080-081-089-090-097-098-310200-
SOUTHWEST MINNESOTA

CITY           SKY/WX    TMP DP  RH WIND       PRES   REMARKS
FAIRMONT       CLEAR     75  64  69 SE5       29.97S
JACKSON        CLEAR     73  61  64 SE6       29.99S
LUVERNE        CLEAR     73  57  56 SE3       29.96F
MARSHALL       CLEAR     76  59  55 SE7       29.95F
MONTEVIDEO     CLEAR     75  57  53 S5        29.97F
REDWOOD FALLS  CLEAR     78  56  46 S3        29.96F
TRACY          CLEAR     76  63  63 SE3       29.96F
WINDOM         CLEAR     75  61  60 SE5       29.97F
WORTHINGTON    CLEAR     75  61  61 S6        29.98S
$$

IAZ001>003-012>014-020>022-031-032-NEZ013-014-SDZ071-310200-
NORTHWEST IOWA

CITY           SKY/WX    TMP DP  RH WIND       PRES   REMARKS
CHEROKEE       CLEAR     77  63  61 SE5       29.95F
DENISON        CLEAR     77  64  65 S3        29.94F
ESTHERVILLE    CLEAR     73  67  81 SE5       29.97F
LE MARS        CLEAR     79  63  57 SE5       29.95S
SHELDON        CLEAR     73  64  73 SE6       29.95S
SIOUX CITY     CLEAR     79  62  56 S8        29.93F
SPENCER        CLEAR     76  61  59 S5        29.97S
STORM LAKE     CLEAR     73  66  78 SE5       29.97F
$$

ABBREVIATIONS USED IN REMARKS
   TC - TEMPERATURE IN CELSIUS
  WCI - WIND CHILL INDEX
   HX - HEAT INDEX
  VSB - VISIBILITY





USA.gov is the U.S. government's official web portal to all federal, state and local government web resources and services.